sat.trackr.live / text

‹ back to catalog

GPS BIIR-5 (PRN 22)

NORAD 26407 · 2000-040A

PAYLOAD ACTIVE UNKNOWN

§ Identity

Operator
Country
US
Launch date
2000-07-16
Launch site
AFETR
Launch vehicle
Mass (kg)
RCS (m²)
5.24

Purposes: nav

External: N2YO · Heavens-Above · Gunter

§ Orbital elements

Epoch: 2026-09-14T05:49:25.902624Z

Period
718.00 min
Inclination
54.8389°
Eccentricity
0.0118233
Mean motion
2.00558381 rev/d
Perigee alt
19,868.6 km
Apogee alt
20,496.7 km
Semi-major
26,560.8 km
B*
0.0000e+0
RAAN
211.6276°
Arg perigee
303.8101°
Mean anomaly
201.0075°
Rev number
19,173

§ Raw data

GPS BIIR-5  (PRN 22)1 26407U 00040A   26257.24266091  .00000015  00000+0  00000+0 0  99992 26407  54.8389 211.6276 0118233 303.8101 201.0075  2.00558381191735

JSON: /api/v1/satellites/26407 · /tle

For live sub-satellite position, see the globe view (requires WebGL).

§ Visibility from observer

Set your observer location to see the next 7 days of passes ≥ 10°. The values pass through the URL so the page stays shareable.

No JS? Fill the form by hand. The geolocation button needs JavaScript.